Location: Newark
(47.5833°N, 8.1500°E)
Time: 09:41:55
(UTC+00:00)

Altair - Pass Details

Date: 28 October 2020
Orbit: 1502 x 1682 km, 47.2° (Epoch: 03 December)

Event Time Altitude Azimuth Distance (km) Brightness Sun altitude
Exits shadow 01:54:26 - 151° (SSE) 4,017 9.7 -41.8°
Reaches altitude 10° 01:58:05 10° 129° (SE) 3,678 9.6 -41.2°
Maximum altitude 01:59:22 10° 121° (ESE) 3,659 9.7 -41.0°
Drops below altitude 10° 02:00:38 10° 113° (ESE) 3,694 9.8 -40.9°
Sets 02:07:46 0° 77° (ENE) 4,731 10.9 -39.8°
